New Bern, NC

5:16 AM EST on December 09, 2019 (GMT -0500)
Craven County Regional

Weather History for KEWN - August, 2019

Change the Weather History Date:

Sunday, August 4, 2019

  Actual Average Record
Temperature  
Mean Temperature 81 °F 80 °F  
Max Temperature 91 °F 89 °F 99 °F (1980)
Min Temperature 71 °F 71 °F 61 °F (1956)
Degree Days  
Heating Degree Days 0 0  
Month to date heating degree days 0 0  
Since 1 June heating degree days 0 1  
Since 1 July heating degree days 0 0  
Cooling Degree Days 16 15  
Month to date cooling degree days 61 60  
Year to date cooling degree days 1380 1150  
Since 1 June cooling degree days 961 907  
Growing Degree Days 31 (Base 50)    
Moisture  
Dew Point 73 °F    
Average Humidity 82    
Maximum Humidity 100    
Minimum Humidity 52    
Precipitation  
Precipitation 0.01 in 0.22 in 1.61 in (2014)
Month to date precipitation 1.22 0.86  
Year to date precipitation 24.16 31.01  
Snow  
Snow 0.00 in - - ()
Month to date snowfall 0.0  
Since 1 July snowfall 0.0  
Snow Depth 0.00 in    
Sea Level Pressure  
Sea Level Pressure 29.96 in    
Wind  
Wind Speed 3 mph ()    
Max Wind Speed 17 mph    
Max Gust Speed 22 mph    
Visibility 10.0 miles    
Events Rain    
T = Trace of Precipitation, MM = Missing Value Source: Averaged Metar Reports

Daily Weather History Graph

Daily Weather History Graph

Search for Another Location

Airport or City:

Astronomy

Aug. 04, 2019 Rise Set
Actual Time 6:19 AM EDT 8:08 PM EDT
Civil Twilight 5:51 AM EDT 8:36 PM EDT
Nautical Twilight 5:18 AM EDT 9:09 PM EDT
Astronomical Twilight 4:42 AM EDT 9:44 PM EDT
Moon 10:14 AM EDT (8/4) 10:56 PM EDT (8/4)
Length of Visible Light 14h 44m
Length of Day
13h 48m
Waxing Crescent, 18% of the Moon is Illuminated
Aug 4
Waxing Crescent
Aug 7
First Quarter
Aug 15
Full
Aug 23
Last Quarter
Aug 30
New

Hourly Weather History & Observations

Time (EDT) Temp. Heat Index Dew Point Humidity Pressure Visibility Wind Dir Wind Speed Gust Speed Precip Events Conditions
12:54 AM 73.0 °F - 72.0 °F 96% 29.97 in 10.0 mi Calm Calm - N/A   Clear
1:54 AM 73.0 °F - 73.0 °F 100% 29.96 in 10.0 mi Calm Calm - N/A   Clear
2:54 AM 73.0 °F - 72.0 °F 96% 29.96 in 10.0 mi WNW 5.8 mph - N/A   Clear
3:54 AM 73.0 °F - 73.0 °F 100% 29.96 in 10.0 mi Calm Calm - N/A   Clear
4:54 AM 73.0 °F - 72.0 °F 96% 29.96 in 10.0 mi WNW 3.5 mph - N/A   Clear
5:54 AM 73.0 °F - 72.0 °F 96% 29.96 in 10.0 mi Calm Calm - N/A   Clear
6:54 AM 72.0 °F - 71.1 °F 97% 29.98 in 10.0 mi Calm Calm - N/A   Clear
7:54 AM 75.9 °F - 73.9 °F 94% 29.98 in 10.0 mi NW 3.5 mph - N/A   Clear
8:54 AM 80.1 °F 85.1 °F 75.0 °F 85% 29.99 in 10.0 mi Variable 3.5 mph - N/A   Clear
9:54 AM 82.9 °F 90.2 °F 75.0 °F 77% 29.98 in 10.0 mi NW 4.6 mph - N/A   Clear
10:54 AM 84.9 °F 91.4 °F 73.0 °F 67% 29.98 in 10.0 mi North 5.8 mph - N/A   Clear
11:54 AM 86.0 °F 92.2 °F 72.0 °F 63% 29.98 in 10.0 mi Calm Calm - N/A   Clear
12:54 PM 89.1 °F 96.0 °F 72.0 °F 57% 29.97 in 10.0 mi Variable 3.5 mph - N/A   Scattered Clouds
1:54 PM 89.1 °F 93.7 °F 69.1 °F 52% 29.95 in 10.0 mi Variable 3.5 mph - N/A   Clear
2:54 PM 89.1 °F 97.0 °F 73.0 °F 59% 29.94 in 10.0 mi ESE 6.9 mph - N/A   Clear
3:54 PM 89.1 °F 96.0 °F 72.0 °F 57% 29.91 in 10.0 mi SSE 9.2 mph - N/A   Partly Cloudy
4:54 PM 82.9 °F 90.2 °F 75.0 °F 77% 29.91 in 10.0 mi South 4.6 mph - 0.01 in Rain Light Rain
5:54 PM 82.0 °F 87.4 °F 73.0 °F 74% 29.94 in 10.0 mi SSW 10.4 mph - 0.00 in   Clear
6:54 PM 81.0 °F 85.2 °F 72.0 °F 74% 29.95 in 10.0 mi SSW 9.2 mph - N/A   Clear
7:54 PM 80.1 °F 84.2 °F 73.0 °F 79% 29.94 in 10.0 mi South 3.5 mph - N/A   Clear
8:54 PM 78.1 °F - 73.9 °F 87% 29.96 in 10.0 mi Calm Calm - N/A   Clear
9:54 PM 77.0 °F - 73.9 °F 90% 29.99 in 10.0 mi NNE 13.8 mph - N/A   Mostly Cloudy
10:09 PM 75.9 °F - 73.0 °F 91% 29.99 in 10.0 mi NNE 15.0 mph - N/A   Overcast
10:33 PM 75.0 °F - 71.1 °F 87% 29.99 in 10.0 mi NNE 9.2 mph - N/A   Scattered Clouds
10:54 PM 73.9 °F - 71.1 °F 91% 29.98 in 10.0 mi NE 6.9 mph - N/A   Scattered Clouds
11:54 PM 73.9 °F - 71.1 °F 91% 29.97 in 10.0 mi NE 3.5 mph - N/A   Partly Cloudy